| time (UTC) | temp C | wind direction | speed KPH | gust KPH | rain 1hr cm | rain 24hr cm | rain mn cm | humidity % | barometer mb |
| 20260906233517 | 33 | 114 | 8.0 | 16.1 | 0.00 | 0.00 | 0.00 | 31 | 1010.8 |
| 20260906232527 | 33 | 118 | 8.0 | 17.7 | 0.00 | 0.00 | 0.00 | 31 | 1010.8 |
| 20260906231523 | 34 | 125 | 6.4 | 16.1 | 0.00 | 0.00 | 0.00 | 31 | 1010.9 |
| 20260906230518 | 35 | 123 | 9.7 | 22.5 | 0.00 | 0.00 | 0.00 | 29 | 1010.8 |
| 20260906225528 | 35 | 118 | 6.4 | 16.1 | 0.00 | 0.00 | 0.00 | 29 | 1010.9 |
| 20260906224603 | 35 | 110 | 8.0 | 16.1 | 0.00 | 0.00 | 0.00 | 27 | 1010.9 |
| 20260906223518 | 35 | 120 | 11.3 | 22.5 | 0.00 | 0.00 | 0.00 | 27 | 1010.9 |
| 20260906222528 | 36 | 124 | 8.0 | 12.9 | 0.00 | 0.00 | 0.00 | 28 | 1011.0 |
| 20260906221543 | 36 | 114 | 12.9 | 20.9 | 0.00 | 0.00 | 0.00 | 28 | 1011.0 |
| 20260906220518 | 36 | 114 | 8.0 | 20.9 | 0.00 | 0.00 | 0.00 | 27 | 1011.1 |
| 20260906215528 | 37 | 113 | 8.0 | 16.1 | 0.00 | 0.00 | 0.00 | 27 | 1011.1 |
| 20260906214523 | 36 | 67 | 6.4 | 14.5 | 0.00 | 0.00 | 0.00 | 28 | 1011.1 |
| 20260906213518 | 35 | 130 | 4.8 | 16.1 | 0.00 | 0.00 | 0.00 | 30 | 1011.2 |
| 20260906212528 | 36 | 87 | 9.7 | 20.9 | 0.00 | 0.00 | 0.00 | 28 | 1011.4 |
| 20260906211542 | 36 | 108 | 8.0 | 16.1 | 0.00 | 0.00 | 0.00 | 28 | 1011.5 |
| 20260906210517 | 36 | 109 | 6.4 | 12.9 | 0.00 | 0.00 | 0.00 | 28 | 1011.6 |
| 20260906205527 | 37 | 86 | 8.0 | 17.7 | 0.00 | 0.00 | 0.00 | 28 | 1011.7 |
| 20260906204521 | 37 | 96 | 9.7 | 20.9 | 0.00 | 0.00 | 0.00 | 28 | 1011.7 |
| 20260906203516 | 36 | 64 | 4.8 | 12.9 | 0.00 | 0.00 | 0.00 | 29 | 1011.8 |
| 20260906202526 | 37 | 108 | 6.4 | 12.9 | 0.00 | 0.00 | 0.00 | 28 | 1012.1 |
| 20260906201520 | 36 | 73 | 6.4 | 14.5 | 0.00 | 0.00 | 0.00 | 30 | 1012.2 |
| 20260906200515 | 37 | 127 | 9.7 | 17.7 | 0.00 | 0.00 | 0.00 | 29 | 1012.2 |
| 20260906195524 | 37 | 124 | 6.4 | 14.5 | 0.00 | 0.00 | 0.00 | 28 | 1012.4 |
| 20260906194517 | 37 | 81 | 8.0 | 17.7 | 0.00 | 0.00 | 0.00 | 29 | 1012.4 |
| 20260906193526 | 37 | 84 | 4.8 | 11.3 | 0.00 | 0.00 | 0.00 | 29 | 1012.6 |
| 20260906192520 | 36 | 99 | 9.7 | 17.7 | 0.00 | 0.00 | 0.00 | 30 | 1012.7 |
| 20260906191515 | 36 | 80 | 8.0 | 17.7 | 0.00 | 0.00 | 0.00 | 31 | 1012.8 |
| 20260906190525 | 35 | 88 | 6.4 | 17.7 | 0.00 | 0.00 | 0.00 | 32 | 1012.9 |
| 20260906185520 | 35 | 96 | 6.4 | 12.9 | 0.00 | 0.00 | 0.00 | 32 | 1013.0 |
| 20260906184530 | 36 | 112 | 6.4 | 12.9 | 0.00 | 0.00 | 0.00 | 30 | 1013.1 |
| 20260906183525 | 36 | 135 | 3.2 | 9.7 | 0.00 | 0.00 | 0.00 | 30 | 1013.2 |
| 20260906182519 | 36 | 124 | 3.2 | 9.7 | 0.00 | 0.00 | 0.00 | 30 | 1013.3 |
| 20260906181549 | 36 | 74 | 6.4 | 12.9 | 0.00 | 0.00 | 0.00 | 32 | 1013.5 |
| 20260906180524 | 36 | 113 | 4.8 | 6.4 | 0.00 | 0.00 | 0.00 | 32 | 1013.6 |
| 20260906180025 | 35 | 133 | 3.2 | 11.3 | 0.00 | 0.00 | 0.00 | 33 | 1013.7 |
| 20260906175020 | 36 | 132 | 4.8 | 14.5 | 0.00 | 0.00 | 0.00 | 33 | 1013.9 |
| 20260906174050 | 35 | 80 | 4.8 | 9.7 | 0.00 | 0.00 | 0.00 | 33 | 1014.0 |
| 20260906173024 | 34 | 104 | 4.8 | 11.3 | 0.00 | 0.00 | 0.00 | 35 | 1014.2 |
| 20260906172018 | 35 | 68 | 6.4 | 14.5 | 0.00 | 0.00 | 0.00 | 35 | 1014.4 |
| 20260906171028 | 35 | 73 | 6.4 | 17.7 | 0.00 | 0.00 | 0.00 | 36 | 1014.7 |
| 20260906170023 | 35 | 118 | 4.8 | 16.1 | 0.00 | 0.00 | 0.00 | 36 | 1014.7 |
| 20260906165017 | 35 | 172 | 1.6 | 3.2 | 0.00 | 0.00 | 0.00 | 36 | 1014.8 |
| 20260906164047 | 35 | 95 | 3.2 | 6.4 | 0.00 | 0.00 | 0.00 | 37 | 1014.8 |
| 20260906163022 | 34 | 135 | 4.8 | 11.3 | 0.00 | 0.00 | 0.00 | 37 | 1014.8 |
| 20260906162017 | 34 | 114 | 3.2 | 11.3 | 0.00 | 0.00 | 0.00 | 40 | 1014.8 |
| 20260906161028 | 33 | 65 | 6.4 | 12.9 | 0.00 | 0.00 | 0.00 | 40 | 1014.8 |
| 20260906160022 | 33 | 97 | 3.2 | 6.4 | 0.00 | 0.00 | 0.00 | 41 | 1014.9 |
| 20260906155524 | 33 | 80 | 1.6 | 6.4 | 0.00 | 0.00 | 0.00 | 42 | 1014.8 |
| 20260906154520 | 32 | 59 | 4.8 | 11.3 | 0.00 | 0.00 | 0.00 | 43 | 1014.8 |
| 20260906153541 | 31 | 67 | 1.6 | 4.8 | 0.00 | 0.00 | 0.00 | 47 | 1014.9 |
| 20260906152544 | 31 | 144 | 4.8 | 9.7 | 0.00 | 0.00 | 0.00 | 48 | 1014.8 |
| 20260906151519 | 30 | 130 | 1.6 | 6.4 | 0.00 | 0.00 | 0.00 | 49 | 1014.6 |
| 20260906150529 | 30 | 127 | 3.2 | 4.8 | 0.00 | 0.00 | 0.00 | 51 | 1014.7 |
| 20260906145524 | 29 | 136 | 3.2 | 4.8 | 0.00 | 0.00 | 0.00 | 51 | 1014.8 |
| 20260906144519 | 28 | 114 | 1.6 | 6.4 | 0.00 | 0.00 | 0.00 | 53 | 1014.7 |
| 20260906143529 | 28 | 124 | 3.2 | 6.4 | 0.00 | 0.00 | 0.00 | 55 | 1014.6 |
| 20260906142523 | 27 | 120 | 3.2 | 4.8 | 0.00 | 0.00 | 0.00 | 57 | 1014.5 |
| 20260906141518 | 26 | 108 | 3.2 | 6.4 | 0.00 | 0.00 | 0.00 | 59 | 1014.6 |
| 20260906140528 | 26 | 113 | 1.6 | 6.4 | 0.00 | 0.00 | 0.00 | 63 | 1014.5 |
| 20260906135522 | 25 | 109 | 3.2 | 6.4 | 0.00 | 0.00 | 0.00 | 65 | 1014.5 |
| 20260906134517 | 23 | 104 | 3.2 | 6.4 | 0.00 | 0.00 | 0.00 | 68 | 1014.4 |
| 20260906133527 | 23 | 108 | 1.6 | 3.2 | 0.00 | 0.00 | 0.00 | 70 | 1014.4 |
| 20260906132541 | 22 | 138 | 1.6 | 6.4 | 0.00 | 0.00 | 0.00 | 72 | 1014.3 |
| 20260906131536 | 22 | 106 | 1.6 | 3.2 | 0.00 | 0.00 | 0.00 | 74 | 1014.4 |
| 20260906130525 | 22 | 0.0 | 0.0 | 0.00 | 0.00 | 0.00 | 73 | 1014.3 | |
| 20260906125520 | 22 | 78 | 0.0 | 3.2 | 0.00 | 0.00 | 0.00 | 73 | 1014.1 |
| 20260906124530 | 22 | 127 | 0.0 | 3.2 | 0.00 | 0.00 | 0.00 | 74 | 1014.0 |
| 20260906123545 | 21 | 128 | 1.6 | 3.2 | 0.00 | 0.00 | 0.00 | 74 | 1014.0 |
| 20260906122519 | 21 | 119 | 1.6 | 4.8 | 0.00 | 0.00 | 0.00 | 74 | 1013.9 |
| 20260906121529 | 21 | 121 | 1.6 | 3.2 | 0.00 | 0.00 | 0.00 | 74 | 1013.9 |
| 20260906120524 | 21 | 120 | 1.6 | 4.8 | 0.00 | 0.00 | 0.00 | 74 | 1013.8 |
| 20260906115517 | 21 | 134 | 1.6 | 3.2 | 0.00 | 0.00 | 0.00 | 73 | 1013.8 |
| 20260906114527 | 22 | 139 | 1.6 | 4.8 | 0.00 | 0.00 | 0.00 | 73 | 1013.6 |
| 20260906113522 | 22 | 127 | 3.2 | 4.8 | 0.00 | 0.00 | 0.00 | 74 | 1013.6 |
| 20260906112517 | 22 | 137 | 1.6 | 3.2 | 0.00 | 0.00 | 0.00 | 73 | 1013.4 |
| 20260906111527 | 22 | 138 | 0.0 | 1.6 | 0.00 | 0.00 | 0.00 | 73 | 1013.4 |
| 20260906110521 | 22 | 130 | 0.0 | 3.2 | 0.00 | 0.00 | 0.00 | 73 | 1013.3 |
| 20260906105516 | 22 | 123 | 0.0 | 1.6 | 0.00 | 0.00 | 0.00 | 73 | 1013.2 |
| 20260906104526 | 21 | 115 | 1.6 | 3.2 | 0.00 | 0.00 | 0.00 | 73 | 1013.5 |
| 20260906103540 | 22 | 0.0 | 0.0 | 0.00 | 0.00 | 0.00 | 73 | 1013.2 | |
| 20260906102530 | 22 | 155 | 0.0 | 1.6 | 0.00 | 0.00 | 0.00 | 73 | 1013.1 |
| 20260906101525 | 22 | 0.0 | 0.0 | 0.00 | 0.00 | 0.00 | 72 | 1013.1 | |
| 20260906100519 | 22 | 0.0 | 0.0 | 0.00 | 0.00 | 0.00 | 70 | 1012.9 | |
| 20260906095530 | 22 | 0.0 | 0.0 | 0.00 | 0.00 | 0.00 | 69 | 1012.9 | |
| 20260906094525 | 22 | 155 | 0.0 | 3.2 | 0.00 | 0.00 | 0.00 | 69 | 1012.7 |
| 20260906093519 | 22 | 155 | 0.0 | 3.2 | 0.00 | 0.00 | 0.00 | 69 | 1012.5 |
| 20260906092529 | 22 | 155 | 0.0 | 1.6 | 0.00 | 0.00 | 0.00 | 69 | 1012.4 |
| 20260906091525 | 22 | 155 | 0.0 | 3.2 | 0.00 | 0.00 | 0.00 | 69 | 1012.6 |
| 20260906090520 | 22 | 155 | 1.6 | 3.2 | 0.00 | 0.00 | 0.00 | 68 | 1012.6 |
| 20260906085517 | 23 | 155 | 1.6 | 4.8 | 0.00 | 0.00 | 0.00 | 68 | 1012.3 |
| 20260906084521 | 23 | 153 | 0.0 | 3.2 | 0.00 | 0.00 | 0.00 | 68 | 1012.5 |
| 20260906083530 | 23 | 163 | 0.0 | 4.8 | 0.00 | 0.00 | 0.00 | 68 | 1012.4 |
| 20260906082525 | 23 | 159 | 1.6 | 6.4 | 0.00 | 0.00 | 0.00 | 68 | 1012.5 |
| 20260906081520 | 23 | 168 | 1.6 | 4.8 | 0.00 | 0.00 | 0.00 | 67 | 1012.6 |
| 20260906080529 | 23 | 144 | 1.6 | 4.8 | 0.00 | 0.00 | 0.00 | 67 | 1012.7 |
| 20260906075525 | 23 | 154 | 1.6 | 3.2 | 0.00 | 0.00 | 0.00 | 67 | 1012.6 |
| 20260906074520 | 23 | 158 | 1.6 | 6.4 | 0.00 | 0.00 | 0.00 | 66 | 1012.7 |
| 20260906073516 | 23 | 158 | 1.6 | 4.8 | 0.00 | 0.00 | 0.00 | 66 | 1012.6 |
| 20260906072525 | 23 | 159 | 3.2 | 9.7 | 0.00 | 0.00 | 0.00 | 66 | 1012.7 |
| 20260906071519 | 23 | 172 | 3.2 | 11.3 | 0.00 | 0.00 | 0.00 | 66 | 1012.7 |
| 20260906070526 | 24 | 151 | 3.2 | 9.7 | 0.00 | 0.00 | 0.00 | 66 | 1012.9 |
| 20260906065524 | 24 | 162 | 4.8 | 9.7 | 0.00 | 0.00 | 0.00 | 65 | 1012.9 |
| 20260906064530 | 24 | 156 | 4.8 | 11.3 | 0.00 | 0.00 | 0.00 | 65 | 1013.0 |
| 20260906063529 | 24 | 155 | 3.2 | 9.7 | 0.00 | 0.00 | 0.00 | 64 | 1013.1 |
| 20260906062531 | 25 | 161 | 3.2 | 6.4 | 0.00 | 0.00 | 0.00 | 64 | 1013.2 |
| 20260906061536 | 25 | 164 | 3.2 | 6.4 | 0.00 | 0.00 | 0.00 | 64 | 1013.2 |
| 20260906060527 | 25 | 161 | 3.2 | 9.7 | 0.00 | 0.00 | 0.00 | 63 | 1013.2 |
| 20260906055516 | 25 | 156 | 3.2 | 6.4 | 0.00 | 0.00 | 0.00 | 63 | 1013.1 |
| 20260906054524 | 25 | 165 | 1.6 | 4.8 | 0.00 | 0.00 | 0.00 | 62 | 1013.1 |
| 20260906053543 | 25 | 158 | 1.6 | 6.4 | 0.00 | 0.00 | 0.00 | 62 | 1013.0 |
| 20260906052520 | 25 | 158 | 3.2 | 6.4 | 0.00 | 0.00 | 0.00 | 63 | 1012.8 |
| 20260906051551 | 25 | 160 | 3.2 | 9.7 | 0.00 | 0.00 | 0.00 | 62 | 1012.8 |
| 20260906050528 | 25 | 165 | 3.2 | 6.4 | 0.00 | 0.00 | 0.00 | 62 | 1013.0 |
| 20260906045554 | 25 | 167 | 3.2 | 9.7 | 0.00 | 0.00 | 0.00 | 62 | 1013.0 |
| 20260906044523 | 26 | 162 | 3.2 | 6.4 | 0.00 | 0.00 | 0.00 | 61 | 1012.9 |
| 20260906043558 | 26 | 154 | 3.2 | 11.3 | 0.00 | 0.00 | 0.00 | 60 | 1012.9 |
| 20260906042528 | 26 | 143 | 1.6 | 6.4 | 0.00 | 0.00 | 0.00 | 60 | 1013.0 |
| 20260906041536 | 26 | 153 | 3.2 | 9.7 | 0.00 | 0.00 | 0.00 | 59 | 1012.9 |
| 20260906040528 | 26 | 144 | 1.6 | 6.4 | 0.00 | 0.00 | 0.00 | 58 | 1012.8 |
| 20260906035525 | 26 | 160 | 1.6 | 9.7 | 0.00 | 0.00 | 0.00 | 58 | 1012.7 |
| 20260906034540 | 26 | 154 | 1.6 | 4.8 | 0.00 | 0.00 | 0.00 | 57 | 1012.9 |
| 20260906033552 | 26 | 156 | 1.6 | 6.4 | 0.00 | 0.00 | 0.00 | 56 | 1012.9 |
| 20260906032526 | 26 | 149 | 3.2 | 6.4 | 0.00 | 0.00 | 0.00 | 56 | 1012.9 |
| 20260906031522 | 27 | 135 | 1.6 | 6.4 | 0.00 | 0.00 | 0.00 | 55 | 1012.9 |
| 20260906030528 | 27 | 138 | 3.2 | 9.7 | 0.00 | 0.00 | 0.00 | 55 | 1012.9 |
| 20260906025524 | 27 | 146 | 3.2 | 9.7 | 0.00 | 0.00 | 0.00 | 54 | 1012.8 |
| 20260906024518 | 27 | 118 | 4.8 | 12.9 | 0.00 | 0.00 | 0.00 | 54 | 1012.8 |
| 20260906023541 | 27 | 137 | 4.8 | 12.9 | 0.00 | 0.00 | 0.00 | 53 | 1012.7 |
| 20260906022524 | 27 | 132 | 6.4 | 11.3 | 0.00 | 0.00 | 0.00 | 53 | 1012.4 |
| 20260906021518 | 27 | 132 | 6.4 | 17.7 | 0.00 | 0.00 | 0.00 | 52 | 1012.3 |
| 20260906020548 | 27 | 131 | 6.4 | 12.9 | 0.00 | 0.00 | 0.00 | 52 | 1012.1 |
| 20260906015522 | 27 | 133 | 4.8 | 12.9 | 0.00 | 0.00 | 0.00 | 51 | 1012.0 |
| 20260906014537 | 27 | 136 | 8.0 | 17.7 | 0.00 | 0.00 | 0.00 | 51 | 1011.8 |
| 20260906013526 | 28 | 135 | 9.7 | 12.9 | 0.00 | 0.00 | 0.00 | 51 | 1011.7 |
| 20260906012527 | 28 | 118 | 9.7 | 25.7 | 0.00 | 0.00 | 0.00 | 50 | 1011.5 |
| 20260906011521 | 28 | 137 | 9.7 | 17.7 | 0.00 | 0.00 | 0.00 | 48 | 1011.3 |
| 20260906010516 | 30 | 133 | 9.7 | 22.5 | 0.00 | 0.00 | 0.00 | 46 | 1011.4 |
| 20260906005527 | 30 | 127 | 9.7 | 25.7 | 0.00 | 0.00 | 0.00 | 44 | 1011.3 |
| 20260906004522 | 30 | 119 | 12.9 | 22.5 | 0.00 | 0.00 | 0.00 | 43 | 1011.4 |
| 20260906003537 | 31 | 132 | 9.7 | 17.7 | 0.00 | 0.00 | 0.00 | 42 | 1011.2 |
| 20260906002527 | 32 | 122 | 14.5 | 25.7 | 0.00 | 0.00 | 0.00 | 36 | 1011.0 |
| 20260906001543 | 33 | 123 | 6.4 | 11.3 | 0.00 | 0.00 | 0.00 | 33 | 1010.9 |
| 20260906000518 | 33 | 113 | 8.0 | 14.5 | 0.00 | 0.00 | 0.00 | 32 | 1010.8 |
| 20260905235528 | 33 | 116 | 9.7 | 16.1 | 0.00 | 0.00 | 0.00 | 31 | 1010.8 |
| 20260905234523 | 35 | 101 | 9.7 | 16.1 | 0.00 | 0.00 | 0.00 | 30 | 1010.6 |